Location: Arthez
(43.0833°N, 0.2500°W)
Time: 15:41:55
(UTC+00:00)

NOSS 3-1 (A) - Pass Details

Date: 16 December 2023
Orbit: 665 x 1546 km, 63.4° (Epoch: 18 February)

Event Time Altitude Azimuth Distance (km) Brightness Sun altitude
Exits shadow 03:41:02 11° 18° (NNE) 2,691 6.0 -40.1°
Drops below altitude 10° 03:41:12 10° 19° (NNE) 2,734 6.0 -40.0°
Sets 03:44:55 0° 36° (NE) 3,871 7.1 -39.4°
